| time (UTC) | temp C | wind direction | speed KPH | gust KPH | rain 1hr cm | rain 24hr cm | rain mn cm | humidity % | barometer mb |
| 20260905060059 | 17 | 0 | 0.0 | 0.0 | 0.00 | 0.00 | 0.00 | 85 | 1009.6 |
| 20260905054559 | 17 | 0 | 0.0 | 0.0 | 0.00 | 0.00 | 0.00 | 85 | 1009.5 |
| 20260905053103 | 17 | 0 | 0.0 | 1.6 | 0.00 | 0.00 | 0.00 | 85 | 1009.5 |
| 20260905051558 | 17 | 0 | 0.0 | 0.0 | 0.00 | 0.00 | 0.00 | 85 | 1009.7 |
| 20260905050058 | 17 | 0 | 0.0 | 1.6 | 0.00 | 0.00 | 0.00 | 85 | 1009.6 |
| 20260905044606 | 17 | 0 | 0.0 | 1.6 | 0.00 | 0.00 | 0.00 | 85 | 1009.4 |
| 20260905043107 | 17 | 0 | 0.0 | 0.0 | 0.00 | 0.00 | 0.00 | 85 | 1009.6 |
| 20260905041602 | 17 | 0 | 0.0 | 1.6 | 0.00 | 0.00 | 0.00 | 84 | 1009.6 |
| 20260905040104 | 17 | 0 | 0.0 | 0.0 | 0.00 | 0.00 | 0.00 | 84 | 1009.5 |
| 20260905034609 | 17 | 0 | 0.0 | 0.0 | 0.00 | 0.00 | 0.00 | 85 | 1009.5 |
| 20260905033105 | 17 | 0 | 0.0 | 1.6 | 0.00 | 0.00 | 0.00 | 85 | 1009.6 |
| 20260905031555 | 17 | 0 | 0.0 | 1.6 | 0.00 | 0.00 | 0.00 | 85 | 1009.6 |
| 20260905030107 | 17 | 0 | 0.0 | 0.0 | 0.00 | 0.00 | 0.00 | 84 | 1009.8 |
| 20260905024601 | 17 | 0 | 0.0 | 0.0 | 0.00 | 0.00 | 0.00 | 84 | 1009.7 |
| 20260905023055 | 17 | 0 | 0.0 | 0.0 | 0.00 | 0.00 | 0.00 | 84 | 1009.8 |
| 20260905021552 | 17 | 0 | 0.0 | 0.0 | 0.00 | 0.00 | 0.00 | 83 | 1010.0 |
| 20260905020052 | 18 | 0 | 0.0 | 0.0 | 0.00 | 0.00 | 0.00 | 83 | 1010.0 |
| 20260905014555 | 18 | 0 | 0.0 | 0.0 | 0.00 | 0.00 | 0.00 | 83 | 1010.2 |
| 20260905013058 | 18 | 0 | 0.0 | 0.0 | 0.00 | 0.00 | 0.00 | 83 | 1010.1 |
| 20260905011555 | 18 | 0 | 0.0 | 0.0 | 0.00 | 0.00 | 0.00 | 82 | 1010.2 |
| 20260905010103 | 18 | 0 | 0.0 | 0.0 | 0.00 | 0.00 | 0.00 | 81 | 1010.3 |
| 20260905004559 | 19 | 0 | 0.0 | 0.0 | 0.00 | 0.00 | 0.00 | 80 | 1010.1 |
| 20260905003058 | 20 | 0 | 0.0 | 0.0 | 0.00 | 0.00 | 0.00 | 79 | 1010.2 |
| 20260905001555 | 20 | 0 | 0.0 | 0.0 | 0.00 | 0.00 | 0.00 | 78 | 1010.1 |
| 20260905000054 | 21 | 0 | 0.0 | 0.0 | 0.00 | 0.00 | 0.00 | 77 | 1010.0 |
| 20260904234607 | 21 | 0 | 0.0 | 1.6 | 0.00 | 0.00 | 0.00 | 76 | 1009.7 |
| 20260904233053 | 22 | 0 | 0.0 | 1.6 | 0.00 | 0.00 | 0.00 | 74 | 1009.5 |
| 20260904231551 | 22 | 0 | 0.0 | 0.0 | 0.00 | 0.00 | 0.00 | 71 | 1009.3 |
| 20260904224559 | 23 | 0 | 0.0 | 0.0 | 0.00 | 0.00 | 0.00 | 71 | 1009.3 |
| 20260904223058 | 24 | 0 | 0.0 | 0.0 | 0.00 | 0.00 | 0.00 | 68 | 1009.2 |
| 20260904221602 | 24 | 0 | 0.0 | 3.2 | 0.00 | 0.00 | 0.00 | 59 | 1009.0 |
| 20260904220111 | 25 | 0 | 0.0 | 4.8 | 0.00 | 0.00 | 0.00 | 60 | 1009.1 |
| 20260904214601 | 25 | 150 | 0.0 | 12.9 | 0.00 | 0.00 | 0.00 | 61 | 1009.0 |
| 20260904213055 | 26 | 0 | 0.0 | 9.7 | 0.00 | 0.00 | 0.00 | 57 | 1009.0 |
| 20260904211609 | 26 | 162 | 0.0 | 4.8 | 0.00 | 0.00 | 0.00 | 56 | 1009.1 |
| 20260904210103 | 26 | 0 | 0.0 | 4.8 | 0.00 | 0.00 | 0.00 | 54 | 1009.0 |
| 20260904204554 | 27 | 0 | 1.6 | 11.3 | 0.00 | 0.00 | 0.00 | 56 | 1008.9 |
| 20260904203053 | 27 | 138 | 0.0 | 11.3 | 0.00 | 0.00 | 0.00 | 55 | 1008.9 |
| 20260904201554 | 27 | 49 | 1.6 | 6.4 | 0.00 | 0.00 | 0.00 | 51 | 1009.1 |
| 20260904200122 | 27 | 198 | 1.6 | 12.9 | 0.00 | 0.00 | 0.00 | 51 | 1008.9 |
| 20260904194633 | 28 | 300 | 3.2 | 12.9 | 0.00 | 0.00 | 0.00 | 49 | 1008.7 |
| 20260904193053 | 28 | 141 | 1.6 | 9.7 | 0.00 | 0.00 | 0.00 | 49 | 1008.5 |
| 20260904191622 | 28 | 86 | 3.2 | 14.5 | 0.00 | 0.00 | 0.00 | 49 | 1008.6 |
| 20260904190057 | 28 | 171 | 1.6 | 11.3 | 0.00 | 0.00 | 0.00 | 51 | 1008.9 |
| 20260904184559 | 27 | 128 | 1.6 | 14.5 | 0.00 | 0.00 | 0.00 | 57 | 1009.0 |
| 20260904183050 | 27 | 141 | 1.6 | 9.7 | 0.00 | 0.00 | 0.00 | 54 | 1009.0 |
| 20260904181600 | 26 | 0 | 0.0 | 4.8 | 0.00 | 0.00 | 0.00 | 57 | 1009.0 |
| 20260904180103 | 26 | 0 | 1.6 | 9.7 | 0.00 | 0.00 | 0.00 | 57 | 1009.2 |
| 20260904174605 | 27 | 162 | 1.6 | 11.3 | 0.00 | 0.00 | 0.00 | 56 | 1009.2 |
| 20260904173117 | 26 | 0 | 1.6 | 6.4 | 0.00 | 0.00 | 0.00 | 59 | 1009.2 |
| 20260904171602 | 26 | 143 | 0.0 | 4.8 | 0.00 | 0.00 | 0.00 | 62 | 1009.6 |
| 20260904164601 | 26 | 215 | 3.2 | 9.7 | 0.00 | 0.00 | 0.00 | 62 | 1009.6 |
| 20260904163058 | 25 | 116 | 1.6 | 9.7 | 0.00 | 0.00 | 0.00 | 64 | 1009.6 |
| 20260904161554 | 25 | 0 | 1.6 | 8.0 | 0.00 | 0.00 | 0.00 | 65 | 1009.7 |
| 20260904160054 | 25 | 0 | 1.6 | 8.0 | 0.00 | 0.00 | 0.00 | 69 | 1009.9 |
| 20260904154617 | 24 | 0 | 1.6 | 6.4 | 0.00 | 0.00 | 0.00 | 73 | 1010.0 |
| 20260904153059 | 24 | 0 | 0.0 | 4.8 | 0.00 | 0.00 | 0.00 | 74 | 1010.2 |
| 20260904151607 | 23 | 0 | 1.6 | 9.7 | 0.00 | 0.00 | 0.00 | 77 | 1010.3 |
| 20260904150103 | 23 | 292 | 0.0 | 6.4 | 0.00 | 0.00 | 0.00 | 78 | 1010.4 |
| 20260904144600 | 22 | 0 | 0.0 | 8.0 | 0.00 | 0.00 | 0.00 | 81 | 1010.4 |
| 20260904143056 | 22 | 296 | 0.0 | 4.8 | 0.00 | 0.00 | 0.00 | 83 | 1010.5 |
| 20260904141618 | 21 | 0 | 0.0 | 4.8 | 0.00 | 0.00 | 0.00 | 84 | 1010.8 |
| 20260904140104 | 20 | 0 | 0.0 | 6.4 | 0.00 | 0.00 | 0.00 | 84 | 1010.8 |
| 20260904134619 | 20 | 59 | 0.0 | 3.2 | 0.00 | 0.00 | 0.00 | 79 | 1010.8 |
| 20260904133108 | 19 | 0 | 0.0 | 3.2 | 0.00 | 0.00 | 0.00 | 77 | 1011.0 |
| 20260904131602 | 18 | 0 | 0.0 | 4.8 | 0.00 | 0.00 | 0.00 | 76 | 1011.1 |
| 20260904130050 | 18 | 74 | 0.0 | 6.4 | 0.00 | 0.00 | 0.00 | 76 | 1011.0 |
| 20260904124554 | 18 | 0 | 0.0 | 3.2 | 0.00 | 0.00 | 0.00 | 76 | 1011.2 |
| 20260904123054 | 18 | 0 | 0.0 | 3.2 | 0.00 | 0.00 | 0.00 | 76 | 1011.0 |
| 20260904121549 | 18 | 0 | 0.0 | 3.2 | 0.00 | 0.00 | 0.00 | 76 | 1011.1 |
| 20260904114555 | 18 | 0 | 0.0 | 3.2 | 0.00 | 0.10 | 0.00 | 76 | 1011.1 |
| 20260904113056 | 18 | 0 | 0.0 | 0.0 | 0.00 | 0.10 | 0.00 | 76 | 1011.0 |
| 20260904111552 | 18 | 0 | 0.0 | 1.6 | 0.00 | 0.10 | 0.00 | 76 | 1011.0 |
| 20260904110101 | 18 | 0 | 0.0 | 1.6 | 0.00 | 0.10 | 0.00 | 76 | 1010.9 |
| 20260904104557 | 18 | 121 | 0.0 | 3.2 | 0.00 | 0.43 | 0.00 | 76 | 1010.8 |
| 20260904103054 | 18 | 0 | 0.0 | 1.6 | 0.00 | 0.43 | 0.00 | 77 | 1010.7 |
| 20260904101550 | 18 | 121 | 0.0 | 0.0 | 0.00 | 0.43 | 0.00 | 77 | 1010.6 |
| 20260904100110 | 18 | 0 | 0.0 | 3.2 | 0.00 | 0.43 | 0.00 | 77 | 1010.6 |
| 20260904094555 | 18 | 0 | 0.0 | 0.0 | 0.00 | 0.69 | 0.00 | 77 | 1010.6 |
| 20260904093103 | 18 | 0 | 0.0 | 0.0 | 0.00 | 0.69 | 0.00 | 77 | 1010.6 |
| 20260904091559 | 17 | 0 | 0.0 | 1.6 | 0.00 | 0.69 | 0.00 | 77 | 1010.6 |
| 20260904090054 | 17 | 0 | 0.0 | 1.6 | 0.00 | 0.69 | 0.00 | 77 | 1010.7 |
| 20260904084554 | 17 | 0 | 0.0 | 0.0 | 0.00 | 0.94 | 0.00 | 77 | 1010.6 |
| 20260904083058 | 17 | 0 | 0.0 | 1.6 | 0.00 | 0.94 | 0.00 | 77 | 1010.8 |
| 20260904081555 | 17 | 0 | 0.0 | 1.6 | 0.00 | 0.94 | 0.00 | 77 | 1010.8 |
| 20260904080056 | 17 | 0 | 0.0 | 0.0 | 0.00 | 0.94 | 0.00 | 77 | 1010.9 |
| 20260904074604 | 17 | 0 | 0.0 | 0.0 | 0.00 | 0.94 | 0.00 | 77 | 1010.9 |
| 20260904073058 | 17 | 0 | 0.0 | 0.0 | 0.00 | 0.94 | 0.00 | 77 | 1010.8 |
| 20260904071600 | 17 | 0 | 0.0 | 0.0 | 0.00 | 0.94 | 0.00 | 77 | 1011.0 |
| 20260904070055 | 17 | 0 | 0.0 | 0.0 | 0.00 | 0.94 | 0.00 | 77 | 1011.0 |
| 20260904064615 | 17 | 0 | 0.0 | 0.0 | 0.00 | 0.94 | 0.00 | 77 | 1011.2 |
| 20260904063050 | 17 | 0 | 0.0 | 0.0 | 0.00 | 0.94 | 0.00 | 77 | 1011.3 |
| 20260904061554 | 17 | 0 | 0.0 | 0.0 | 0.00 | 0.94 | 0.00 | 77 | 1011.5 |